| time (UTC) | temp F | wind direction | speed MPH | gust MPH | rain 1hr in | rain 24hr in | rain mn in | humidity % | barometer mb |
| 20260903201528 | 82 | 92 | 0.0 | 5.0 | 0.00 | 0.00 | 0.00 | 17 | 1002.1 |
| 20260903200019 | 83 | 64 | 0.0 | 2.0 | 0.00 | 0.00 | 0.00 | 17 | 1002.3 |
| 20260903194520 | 82 | 117 | 0.0 | 9.0 | 0.00 | 0.00 | 0.00 | 16 | 1002.4 |
| 20260903193017 | 83 | 147 | 0.0 | 6.0 | 0.00 | 0.00 | 0.00 | 17 | 1002.6 |
| 20260903191516 | 82 | 153 | 0.0 | 2.0 | 0.00 | 0.00 | 0.00 | 16 | 1002.6 |
| 20260903190005 | 81 | 234 | 0.0 | 4.0 | 0.00 | 0.00 | 0.00 | 17 | 1002.9 |
| 20260903184504 | 81 | 150 | 0.0 | 4.0 | 0.00 | 0.00 | 0.00 | 18 | 1003.0 |
| 20260903183003 | 80 | 136 | 0.0 | 3.0 | 0.00 | 0.00 | 0.00 | 18 | 1003.0 |
| 20260903181502 | 79 | 157 | 0.0 | 4.0 | 0.00 | 0.00 | 0.00 | 21 | 1003.2 |
| 20260903180007 | 79 | 134 | 0.0 | 2.0 | 0.00 | 0.00 | 0.00 | 19 | 1003.3 |
| 20260903174502 | 78 | 256 | 0.0 | 8.0 | 0.00 | 0.00 | 0.00 | 19 | 1003.4 |
| 20260903173001 | 78 | 92 | 1.0 | 5.0 | 0.00 | 0.00 | 0.00 | 26 | 1003.6 |
| 20260903171503 | 78 | 248 | 0.0 | 1.0 | 0.00 | 0.00 | 0.00 | 20 | 1003.7 |
| 20260903170134 | 77 | 227 | 0.0 | 1.0 | 0.00 | 0.00 | 0.00 | 22 | 1003.5 |
| 20260903164552 | 76 | 246 | 0.0 | 2.0 | 0.00 | 0.00 | 0.00 | 25 | 1003.6 |
| 20260903163046 | 73 | 242 | 0.0 | 2.0 | 0.00 | 0.00 | 0.00 | 30 | 1003.7 |
| 20260903161558 | 72 | 286 | 0.0 | 4.0 | 0.00 | 0.00 | 0.00 | 32 | 1003.7 |
| 20260903160049 | 69 | 298 | 0.0 | 1.0 | 0.00 | 0.00 | 0.00 | 34 | 1003.6 |
| 20260903154553 | 67 | 285 | 0.0 | 1.0 | 0.00 | 0.00 | 0.00 | 38 | 1003.6 |
| 20260903153045 | 64 | 253 | 0.0 | 0.0 | 0.00 | 0.00 | 0.00 | 41 | 1003.7 |
| 20260903151550 | 64 | 260 | 0.0 | 0.0 | 0.00 | 0.00 | 0.00 | 40 | 1003.6 |
| 20260903150040 | 64 | 227 | 0.0 | 0.0 | 0.00 | 0.00 | 0.00 | 40 | 1003.6 |
| 20260903144530 | 63 | 234 | 0.0 | 0.0 | 0.00 | 0.00 | 0.00 | 40 | 1003.5 |
| 20260903143034 | 62 | 227 | 0.0 | 6.0 | 0.00 | 0.00 | 0.00 | 43 | 1003.5 |
| 20260903141530 | 60 | 248 | 0.0 | 2.0 | 0.00 | 0.00 | 0.00 | 50 | 1003.3 |
| 20260903140038 | 59 | 249 | 0.0 | 4.0 | 0.00 | 0.00 | 0.00 | 50 | 1003.0 |
| 20260903134524 | 59 | 268 | 0.0 | 3.0 | 0.00 | 0.00 | 0.00 | 49 | 1002.8 |
| 20260903133023 | 60 | 244 | 0.0 | 3.0 | 0.00 | 0.00 | 0.00 | 48 | 1002.6 |
| 20260903131522 | 60 | 260 | 0.0 | 0.0 | 0.00 | 0.00 | 0.00 | 50 | 1002.2 |
| 20260903130009 | 60 | 248 | 0.0 | 2.0 | 0.00 | 0.00 | 0.00 | 52 | 1002.0 |
| 20260903124508 | 61 | 247 | 0.0 | 0.0 | 0.00 | 0.00 | 0.00 | 53 | 1001.7 |
| 20260903123008 | 61 | 248 | 0.0 | 0.0 | 0.00 | 0.00 | 0.00 | 49 | 1001.8 |
| 20260903121506 | 61 | 246 | 0.0 | 0.0 | 0.00 | 0.00 | 0.00 | 52 | 1001.9 |
| 20260903120006 | 61 | 229 | 0.0 | 0.0 | 0.00 | 0.00 | 0.00 | 50 | 1002.0 |
| 20260903114505 | 61 | 214 | 0.0 | 4.0 | 0.00 | 0.00 | 0.00 | 51 | 1002.2 |
| 20260903113010 | 62 | 185 | 0.0 | 0.0 | 0.00 | 0.00 | 0.00 | 51 | 1002.2 |
| 20260903111506 | 62 | 275 | 0.0 | 0.0 | 0.00 | 0.00 | 0.00 | 50 | 1002.5 |
| 20260903110059 | 62 | 277 | 0.0 | 0.0 | 0.00 | 0.00 | 0.00 | 50 | 1002.5 |
| 20260903104557 | 62 | 281 | 0.0 | 0.0 | 0.00 | 0.00 | 0.00 | 50 | 1002.6 |
| 20260903103048 | 62 | 279 | 0.0 | 0.0 | 0.00 | 0.00 | 0.00 | 48 | 1002.6 |
| 20260903101548 | 62 | 267 | 0.0 | 0.0 | 0.00 | 0.00 | 0.00 | 47 | 1002.5 |
| 20260903100047 | 62 | 180 | 0.0 | 2.0 | 0.00 | 0.00 | 0.00 | 50 | 1002.7 |
| 20260903094545 | 62 | 296 | 0.0 | 0.0 | 0.00 | 0.00 | 0.00 | 54 | 1002.1 |
| 20260903093053 | 62 | 317 | 0.0 | 0.0 | 0.00 | 0.00 | 0.00 | 52 | 1002.1 |
| 20260903091541 | 63 | 317 | 0.0 | 1.0 | 0.00 | 0.00 | 0.00 | 55 | 1002.0 |
| 20260903090027 | 63 | 194 | 0.0 | 0.0 | 0.00 | 0.00 | 0.00 | 52 | 1002.0 |
| 20260903084529 | 63 | 194 | 0.0 | 0.0 | 0.00 | 0.00 | 0.00 | 53 | 1001.6 |
| 20260903083001 | 64 | 192 | 0.0 | 0.0 | 0.00 | 0.00 | 0.00 | 48 | 1001.6 |
| 20260903081600 | 64 | 192 | 0.0 | 0.0 | 0.00 | 0.00 | 0.00 | 51 | 1001.4 |
| 20260903080048 | 64 | 192 | 0.0 | 0.0 | 0.00 | 0.00 | 0.00 | 50 | 1001.4 |
| 20260903074557 | 64 | 192 | 0.0 | 0.0 | 0.00 | 0.00 | 0.00 | 51 | 1001.5 |
| 20260903073046 | 65 | 192 | 0.0 | 0.0 | 0.00 | 0.00 | 0.00 | 48 | 1001.7 |
| 20260903071541 | 66 | 138 | 0.0 | 0.0 | 0.00 | 0.00 | 0.00 | 45 | 1001.9 |
| 20260903070044 | 66 | 138 | 0.0 | 0.0 | 0.00 | 0.00 | 0.00 | 40 | 1001.9 |
| 20260903064538 | 66 | 270 | 0.0 | 0.0 | 0.00 | 0.00 | 0.00 | 41 | 1001.7 |
| 20260903063036 | 66 | 274 | 0.0 | 0.0 | 0.00 | 0.00 | 0.00 | 42 | 1001.7 |
| 20260903061535 | 67 | 274 | 0.0 | 0.0 | 0.00 | 0.00 | 0.00 | 42 | 1001.7 |
| 20260903060021 | 67 | 274 | 0.0 | 0.0 | 0.00 | 0.00 | 0.00 | 40 | 1001.7 |
| 20260903054525 | 68 | 274 | 0.0 | 0.0 | 0.00 | 0.00 | 0.00 | 38 | 1001.4 |
| 20260903053016 | 68 | 274 | 0.0 | 0.0 | 0.00 | 0.00 | 0.00 | 36 | 1001.5 |
| 20260903051514 | 69 | 274 | 0.0 | 0.0 | 0.00 | 0.00 | 0.00 | 36 | 1001.6 |
| 20260903050010 | 70 | 274 | 0.0 | 1.0 | 0.00 | 0.00 | 0.00 | 35 | 1001.6 |
| 20260903044506 | 71 | 273 | 0.0 | 1.0 | 0.00 | 0.00 | 0.00 | 31 | 1001.4 |
| 20260903043009 | 71 | 271 | 0.0 | 3.0 | 0.00 | 0.00 | 0.00 | 31 | 1001.3 |
| 20260903041505 | 72 | 267 | 0.0 | 0.0 | 0.00 | 0.00 | 0.00 | 32 | 1001.3 |
| 20260903040042 | 75 | 270 | 0.0 | 0.0 | 0.00 | 0.00 | 0.00 | 28 | 1001.2 |
| 20260903034542 | 76 | 274 | 0.0 | 0.0 | 0.00 | 0.00 | 0.00 | 26 | 1001.0 |
| 20260903033031 | 77 | 259 | 0.0 | 0.0 | 0.00 | 0.00 | 0.00 | 24 | 1000.8 |
| 20260903031523 | 76 | 254 | 0.0 | 0.0 | 0.00 | 0.00 | 0.00 | 25 | 1000.8 |
| 20260903030008 | 75 | 234 | 0.0 | 3.0 | 0.00 | 0.00 | 0.00 | 26 | 1000.5 |
| 20260903024505 | 75 | 241 | 0.0 | 0.0 | 0.00 | 0.00 | 0.00 | 31 | 1000.2 |
| 20260903023001 | 75 | 242 | 0.0 | 0.0 | 0.00 | 0.00 | 0.00 | 33 | 1000.1 |
| 20260903021557 | 77 | 242 | 0.0 | 0.0 | 0.00 | 0.00 | 0.00 | 31 | 999.7 |
| 20260903020056 | 79 | 242 | 0.0 | 0.0 | 0.00 | 0.00 | 0.00 | 30 | 999.5 |
| 20260903014606 | 80 | 242 | 0.0 | 0.0 | 0.00 | 0.00 | 0.00 | 28 | 999.4 |
| 20260903013046 | 81 | 244 | 0.0 | 0.0 | 0.00 | 0.00 | 0.00 | 26 | 999.6 |
| 20260903011544 | 82 | 252 | 0.0 | 0.0 | 0.00 | 0.00 | 0.00 | 26 | 999.6 |
| 20260903010042 | 83 | 252 | 0.0 | 5.0 | 0.00 | 0.00 | 0.00 | 25 | 999.6 |
| 20260903004535 | 84 | 254 | 0.0 | 15.0 | 0.00 | 0.00 | 0.00 | 22 | 999.7 |
| 20260903003028 | 84 | 239 | 3.0 | 13.0 | 0.00 | 0.00 | 0.00 | 21 | 999.6 |
| 20260903001525 | 84 | 247 | 4.0 | 13.0 | 0.00 | 0.00 | 0.00 | 22 | 999.5 |
| 20260903000023 | 84 | 236 | 0.0 | 7.0 | 0.00 | 0.00 | 0.00 | 23 | 999.4 |
| 20260902234521 | 86 | 257 | 0.0 | 7.0 | 0.00 | 0.00 | 0.00 | 19 | 999.2 |
| 20260902233021 | 87 | 232 | 0.0 | 14.0 | 0.00 | 0.00 | 0.00 | 18 | 999.1 |
| 20260902231520 | 87 | 236 | 5.0 | 17.0 | 0.00 | 0.00 | 0.00 | 18 | 999.0 |
| 20260902230020 | 88 | 200 | 1.0 | 12.0 | 0.00 | 0.00 | 0.00 | 18 | 998.9 |
| 20260902224506 | 90 | 260 | 4.0 | 12.0 | 0.00 | 0.00 | 0.00 | 15 | 998.8 |
| 20260902223005 | 89 | 189 | 2.0 | 11.0 | 0.00 | 0.00 | 0.00 | 17 | 998.8 |
| 20260902221503 | 89 | 259 | 4.0 | 15.0 | 0.00 | 0.00 | 0.00 | 17 | 998.8 |
| 20260902220101 | 89 | 217 | 0.0 | 4.0 | 0.00 | 0.00 | 0.00 | 18 | 998.9 |
| 20260902214557 | 86 | 183 | 0.0 | 1.0 | 0.00 | 0.00 | 0.00 | 21 | 998.9 |
| 20260902213101 | 86 | 34 | 0.0 | 1.0 | 0.00 | 0.00 | 0.00 | 25 | 998.9 |
| 20260902211557 | 86 | 263 | 0.0 | 0.0 | 0.00 | 0.00 | 0.00 | 23 | 999.3 |
| 20260902210057 | 85 | 105 | 0.0 | 0.0 | 0.00 | 0.00 | 0.00 | 24 | 999.6 |
| 20260902204536 | 86 | 70 | 0.0 | 1.0 | 0.00 | 0.00 | 0.00 | 25 | 999.7 |
| 20260902203034 | 86 | 291 | 0.0 | 1.0 | 0.00 | 0.00 | 0.00 | 23 | 1000.1 |